User: anonymous   Login
Location: Bieg
(49.3499°N, 10.3835°E)
Time: 20:18:47
(UTC+00:00)
Language:

Cosmos 1954 Rocket - Orbit

View from above orbital plane
View from above orbital plane
View from above satellite
View from above satellite

Ground track
Ground track

The orbit data is extracted from the following two-line orbital elements,

1 19257U 88053B   24197.94604788  .00000470  00000-0  16295-3 0  9994
2 19257  74.0478 141.1152 0019121 113.0240 309.0501 14.38222411890065
Epoch (UTC): 15 July 2024 22:42:18
Eccentricity: 0.0019121
inclination: 74.0478°
perigee height: 751 km
apogee height: 778 km
right ascension of ascending node: 141.1152°
argument of perigee: 113.0240°
revolutions per day: 14.38222411
mean anomaly at epoch: 309.0501°
orbit number at epoch: 89006

The dashed part of the orbit path shows where the satellite is in the earth's shadow,  

DLR